[[{"header":{"parameterUnit":"m.s-1","parameterCategory":1,"la1":30.2991,"la2":30.254,"lo1":-89.0895,"lo2":-89.0444,"dy":0.0017,"dx":0.0017,"nx":28,"ny":28,"refTime":"2025-12-04T03:00:00:Z","depth":0,"parameterNumber":2,"parameterNumberName":"U-component_of_WINDS"},"data":[0,0,0,0,0,0,0,0,0,0,0,0,0,0,0,0,0,0,0,0,0,0,0,0,0,0,0,0,0,0,0,0,0,0,0,0,0,0,0,0,0,0,0,0,0,0,0,0,0,0,0,0,0,0,0,0,0,0,1.5254,1.5254,0,1.5259,1.5259,1.5259,1.5236,1.5235,1.5234,1.5234,1.5238,1.5239,1.524,0,0,0,0,0,0,0,0,0,0,0,0,0,1.5224,1.5225,1.5254,1.5254,1.5254,1.5259,1.5259,1.5259,1.5236,1.5235,1.5234,1.5233,1.5238,1.5239,1.524,0,0,0,0,0,0,0,0,0,0,0,0,0,1.5234,1.5225,1.5254,1.5243,1.5242,1.5259,1.5259,1.5259,1.5236,1.5235,1.5234,1.5233,1.5238,1.5239,1.524,1.5267,0,0,1.5243,1.5244,0,0,0,0,0,0,0,0,1.5233,1.5235,1.5244,1.5244,1.5243,1.5245,1.525,1.5261,1.5236,1.5238,1.5234,1.5233,1.5241,1.5242,1.5245,1.5267,1.5267,1.5243,1.5244,1.5244,1.5245,0,0,0,0,0,0,0,1.5233,1.5234,1.5256,1.5245,1.5244,1.5238,1.5238,1.5252,1.5245,1.5238,1.5236,1.5237,1.5241,1.5244,1.5245,1.5267,1.5243,1.5244,1.5245,1.5245,1.5311,1.5312,0,0,0,0,0,0,1.5233,1.5234,1.5255,1.5256,1.5235,1.5239,1.5239,1.5246,1.5245,1.5244,1.5238,1.5236,1.5243,1.5244,1.5245,1.5276,1.5244,1.5245,1.5246,1.531,1.5311,1.5312,0,0,0,0,0,0,1.5233,1.5235,1.5255,1.5244,1.5247,1.5241,1.5248,1.5246,1.525,1.5245,1.5244,1.5243,1.5242,1.5244,1.5261,1.5276,1.5246,1.5247,1.5309,1.531,1.5312,1.5339,0,0,0,0,0,0,1.5232,1.5235,1.5246,1.5245,1.5247,1.5272,1.5249,1.5247,1.5252,1.5249,1.5249,1.5248,1.5241,1.526,1.5263,1.5277,1.5248,1.5307,1.5309,1.5311,1.5337,1.5342,1.5346,0,0,0,0,0,1.5231,1.5253,1.5246,1.5249,1.526,1.5272,1.5274,1.5265,1.5253,1.5263,1.526,1.5248,1.5274,1.5262,1.5265,1.528,1.5306,1.5309,1.5311,1.5335,1.5341,1.5346,0,0,0,0,0,0,1.5255,1.5253,1.5245,1.5267,1.527,1.5269,1.5281,1.5272,1.5278,1.5275,1.5265,1.5265,1.5285,1.5284,1.527,1.5306,1.5288,1.5291,1.5305,1.5311,1.5315,1.5315,1.5249,0,0,0,0,0,1.5263,1.5274,1.5271,1.5291,1.5293,1.5287,1.5292,1.5285,1.5288,1.5289,1.5287,1.529,1.5299,1.5305,1.5313,1.5337,1.5337,1.5349,1.5353,1.5357,1.536,1.5372,1.5378,1.532,1.532,1.532,0,0,1.528,1.5279,1.5287,1.5296,1.5297,1.5308,1.5288,1.5301,1.5309,1.5291,1.5308,1.5307,1.5309,1.533,1.534,1.5331,1.5375,1.536,1.5363,1.5364,1.5376,1.5381,1.5386,1.5322,1.5322,1.5321,0,0,1.5315,1.5316,1.5333,1.5335,1.5338,1.5334,1.5338,1.5338,1.5336,1.5353,1.534,1.535,1.5365,1.5367,1.537,1.5408,1.5397,1.5411,1.5433,1.5446,1.545,1.5454,1.5467,1.5472,1.5413,1.5413,1.5414,0,1.5335,1.5351,1.5343,1.5356,1.5361,1.5346,1.5362,1.5365,1.537,1.5373,1.5363,1.5382,1.5383,1.5405,1.5414,1.5417,1.5421,1.541,1.545,1.5454,1.5458,1.547,1.5475,1.5415,1.5415,1.5415,1.5415,0,1.5376,1.5388,1.5401,1.5407,1.5412,1.5428,1.5421,1.5428,1.5421,1.5418,1.5436,1.5436,1.5444,1.5448,1.5442,1.5469,1.5464,1.5452,1.5434,1.5465,1.5476,1.5481,1.5417,1.5417,1.5416,1.5416,0,0,1.5426,1.5427,1.5432,1.5435,1.5437,1.5446,1.546,1.5468,1.5474,1.5479,1.5491,1.5504,1.5494,1.5497,1.5491,1.5502,1.5532,1.5489,1.5489,1.5497,1.5562,1.557,1.5576,1.5525,1.5526,1.5526,1.5562,0,1.5461,1.5486,1.5479,1.5504,1.5515,1.5501,1.5514,1.5516,1.5514,1.5523,1.552,1.553,1.5516,1.5518,1.5528,1.5526,1.5544,1.5523,1.5535,1.5536,1.5535,1.5582,1.5591,1.5624,1.5566,1.5567,1.5567,0,1.5504,1.5511,1.5537,1.5538,1.5542,1.5554,1.5561,1.5569,1.5572,1.557,1.5574,1.5565,1.558,1.5562,1.5582,1.5567,1.5572,1.5572,1.5573,1.5573,1.5553,1.5583,1.5635,1.564,1.5574,1.5574,1.5573,0,1.5538,1.5553,1.5571,1.5574,1.5575,1.5584,1.5585,1.5587,1.5592,1.5598,1.5601,1.5609,1.5613,1.5619,1.5612,1.56,1.5633,1.5614,1.5631,1.5631,1.5638,1.5638,1.5691,1.5642,1.5642,1.5642,1.5642,0,1.5578,1.5594,1.5586,1.5597,1.5616,1.5607,1.5626,1.5625,1.5627,1.5637,1.5626,1.5636,1.5627,1.5636,1.5631,1.5648,1.565,1.5648,1.5647,1.5649,1.565,1.5652,1.5649,1.5643,1.5643,1.5643,1.5642,0,1.5618,1.5614,1.5632,1.5632,1.5633,1.5646,1.5646,1.5656,1.5653,1.5667,1.5669,1.5665,1.5675,1.5669,1.568,1.5677,1.5699,1.5694,1.5698,1.5696,1.5713,1.5712,1.5769,1.5776,1.5723,1.5724,1.5724,0,1.5643,1.5656,1.5657,1.5664,1.5666,1.5676,1.5681,1.5674,1.568,1.5685,1.5694,1.5704,1.5711,1.5728,1.5725,1.5734,1.5729,1.5748,1.573,1.5732,1.5729,1.5728,1.5729,1.5752,1.5753,1.5753,1.5754,0,1.5689,1.5686,1.5694,1.5702,1.5709,1.5715,1.572,1.5726,1.5718,1.5726,1.5736,1.5742,1.5753,1.5762,1.577,1.577,1.5761,1.576,1.5764,1.5766,1.5768,1.5767,1.5708,1.5758,1.5758,1.5757,1.5757,1.5757,1.5722,1.5733,1.5735,1.5745,1.5748,1.5753,1.5763,1.5761,1.577,1.5779,1.5774,1.5786,1.5789,1.5798,1.58,1.5809,1.5801,1.5807,1.5809,1.5811,1.5813,1.5767,1.5811,1.581,1.581,1.581,1.581,0,1.5766,1.5768,1.5777,1.5784,1.5792,1.5783,1.5788,1.5795,1.5806,1.581,1.5817,1.583,1.5839,1.5838,1.5846,1.5854,1.585,1.5856,1.5855,1.5856,1.5819,1.5815,1.5859,1.5859,1.5859,1.5859,1.5859,1.5859,1.579,1.5808,1.5806,1.5825,1.5826,1.5838,1.5842,1.5846,1.5849,1.5863,1.5871,1.587,1.5872,1.588,1.5888,1.5888,1.5891,1.5899,1.5897,1.5863,1.5858,1.5854,1.5849,1.59,1.59,1.5933,1.5933,1.5933]},{"header":{"parameterUnit":"m.s-1","parameterCategory":1,"la1":30.2991,"la2":30.254,"lo1":-89.0895,"lo2":-89.0444,"dy":0.0017,"dx":0.0017,"nx":28,"ny":28,"refTime":"2025-12-04T03:00:00:Z","depth":0,"parameterNumber":3,"parameterNumberName":"V-component_of_WINDS"},"data":[0,0,0,0,0,0,0,0,0,0,0,0,0,0,0,0,0,0,0,0,0,0,0,0,0,0,0,0,0,0,0,0,0,0,0,0,0,0,0,0,0,0,0,0,0,0,0,0,0,0,0,0,0,0,0,0,0,0,-3.6079,-3.608,0,-3.617,-3.6171,-3.6172,-3.6167,-3.6166,-3.6164,-3.6163,-3.6252,-3.6255,-3.6259,0,0,0,0,0,0,0,0,0,0,0,0,0,-3.5898,-3.5901,-3.6079,-3.608,-3.6081,-3.617,-3.6171,-3.6172,-3.6167,-3.6166,-3.6164,-3.6163,-3.625,-3.6255,-3.6259,0,0,0,0,0,0,0,0,0,0,0,0,0,-3.5981,-3.5902,-3.6079,-3.609,-3.6091,-3.6169,-3.6171,-3.6172,-3.6168,-3.6166,-3.6164,-3.6162,-3.6249,-3.6254,-3.626,-3.6331,0,0,-3.6276,-3.6278,0,0,0,0,0,0,0,0,-3.5976,-3.5988,-3.6087,-3.6089,-3.6091,-3.6155,-3.6139,-3.6225,-3.6168,-3.6139,-3.6163,-3.6161,-3.6221,-3.6228,-3.6249,-3.6335,-3.6339,-3.6276,-3.628,-3.6282,-3.6283,0,0,0,0,0,0,0,-3.5971,-3.5984,-3.6115,-3.6088,-3.6091,-3.6089,-3.6098,-3.6156,-3.6189,-3.6141,-3.6141,-3.6152,-3.6222,-3.6244,-3.6251,-3.634,-3.6276,-3.6281,-3.6284,-3.6286,-3.649,-3.6492,0,0,0,0,0,0,-3.5963,-3.5979,-3.6112,-3.6117,-3.6028,-3.6094,-3.6104,-3.6136,-3.6189,-3.6195,-3.6153,-3.6151,-3.6236,-3.6245,-3.6255,-3.6343,-3.6282,-3.6287,-3.629,-3.6488,-3.6491,-3.6493,0,0,0,0,0,0,-3.5959,-3.5975,-3.6108,-3.6048,-3.6065,-3.6099,-3.6135,-3.6139,-3.6162,-3.6198,-3.6204,-3.6171,-3.6235,-3.6247,-3.6313,-3.6346,-3.6289,-3.6294,-3.6485,-3.6489,-3.6492,-3.6519,0,0,0,0,0,0,-3.5954,-3.5974,-3.6002,-3.6049,-3.6068,-3.6166,-3.6137,-3.6142,-3.6172,-3.617,-3.6216,-3.6222,-3.6234,-3.6305,-3.6318,-3.6352,-3.6298,-3.6483,-3.6487,-3.6491,-3.6515,-3.6523,-3.6529,0,0,0,0,0,-3.5948,-3.6005,-3.6003,-3.6019,-3.6105,-3.6168,-3.6179,-3.6194,-3.6175,-3.6203,-3.6226,-3.622,-3.634,-3.6312,-3.6326,-3.6362,-3.6481,-3.6486,-3.6491,-3.6512,-3.6521,-3.6529,0,0,0,0,0,0,-3.5959,-3.6011,-3.601,-3.6085,-3.6122,-3.6167,-3.6203,-3.6203,-3.6245,-3.6241,-3.6257,-3.6267,-3.6333,-3.6354,-3.6322,-3.6435,-3.6408,-3.6416,-3.6419,-3.6428,-3.6435,-3.6428,-3.6303,0,0,0,0,0,-3.597,-3.6019,-3.6061,-3.6122,-3.6141,-3.6169,-3.6197,-3.6206,-3.6244,-3.626,-3.6288,-3.6324,-3.637,-3.64,-3.6444,-3.6518,-3.6528,-3.655,-3.6557,-3.6563,-3.657,-3.6611,-3.6621,-3.651,-3.6509,-3.6509,0,0,-3.5994,-3.6028,-3.6057,-3.6126,-3.6156,-3.6204,-3.6182,-3.6234,-3.6271,-3.6267,-3.6332,-3.6353,-3.6395,-3.6466,-3.6498,-3.6485,-3.6603,-3.6569,-3.6573,-3.6577,-3.6617,-3.6628,-3.6637,-3.6513,-3.6512,-3.6512,0,0,-3.6062,-3.6093,-3.6148,-3.6179,-3.6226,-3.6244,-3.6257,-3.6303,-3.6317,-3.6383,-3.6381,-3.6424,-3.6502,-3.6533,-3.6558,-3.6639,-3.6635,-3.6653,-3.6689,-3.6729,-3.6738,-3.6746,-3.6775,-3.6785,-3.6659,-3.6659,-3.6659,0,-3.6085,-3.616,-3.6176,-3.6229,-3.6259,-3.626,-3.6316,-3.6344,-3.6402,-3.6422,-3.6408,-3.6507,-3.6535,-3.6613,-3.6633,-3.6654,-3.6669,-3.6647,-3.6736,-3.6744,-3.6751,-3.6779,-3.679,-3.6661,-3.6661,-3.6661,-3.6661,0,-3.6186,-3.6237,-3.6276,-3.6334,-3.6369,-3.6422,-3.6446,-3.6479,-3.6484,-3.6504,-3.657,-3.6604,-3.6656,-3.6675,-3.668,-3.6753,-3.6744,-3.6732,-3.6705,-3.6763,-3.679,-3.6801,-3.6664,-3.6663,-3.6663,-3.6662,0,0,-3.6263,-3.6331,-3.6344,-3.6371,-3.6423,-3.6463,-3.6516,-3.6569,-3.6597,-3.6636,-3.6682,-3.6749,-3.6739,-3.6768,-3.6776,-3.6811,-3.6874,-3.6795,-3.6796,-3.6809,-3.6958,-3.6967,-3.6979,-3.6872,-3.6874,-3.6875,-3.6954,0,-3.6337,-3.6434,-3.6451,-3.6536,-3.6584,-3.6586,-3.6633,-3.6669,-3.6689,-3.6732,-3.6752,-3.68,-3.6783,-3.6801,-3.6836,-3.6859,-3.6904,-3.6853,-3.6913,-3.6915,-3.6903,-3.6993,-3.7002,-3.7075,-3.6965,-3.6966,-3.6968,0,-3.6436,-3.648,-3.6571,-3.6617,-3.6638,-3.668,-3.673,-3.6771,-3.6812,-3.6823,-3.6857,-3.6862,-3.6917,-3.6887,-3.6963,-3.6929,-3.6954,-3.6969,-3.6972,-3.6978,-3.6945,-3.7002,-3.7099,-3.711,-3.6984,-3.6983,-3.6982,0,-3.6484,-3.6566,-3.6631,-3.6654,-3.6709,-3.6739,-3.6763,-3.6803,-3.6833,-3.6876,-3.6896,-3.6944,-3.697,-3.7007,-3.7024,-3.7001,-3.7099,-3.7071,-3.711,-3.7109,-3.713,-3.7129,-3.7233,-3.7146,-3.7146,-3.7146,-3.7145,0,-3.6565,-3.662,-3.6654,-3.6694,-3.6756,-3.6774,-3.6834,-3.6857,-3.6893,-3.6936,-3.694,-3.6981,-3.7001,-3.7045,-3.7058,-3.7119,-3.7131,-3.7141,-3.7144,-3.7142,-3.714,-3.7158,-3.7154,-3.7149,-3.7148,-3.7147,-3.7147,0,-3.6629,-3.6654,-3.6725,-3.6772,-3.6786,-3.6829,-3.6869,-3.6907,-3.6927,-3.6983,-3.6997,-3.7028,-3.7079,-3.71,-3.7162,-3.7172,-3.7242,-3.7241,-3.7229,-3.723,-3.7268,-3.7265,-3.7388,-3.7405,-3.7306,-3.7307,-3.7308,0,-3.6679,-3.6722,-3.6775,-3.6805,-3.6831,-3.688,-3.6912,-3.6931,-3.6964,-3.7015,-3.7047,-3.7099,-3.7141,-3.7223,-3.7251,-3.7298,-3.7299,-3.7339,-3.7306,-3.7302,-3.73,-3.7298,-3.7302,-3.7345,-3.7346,-3.7347,-3.7347,0,-3.6766,-3.6776,-3.6823,-3.6875,-3.6913,-3.6954,-3.6994,-3.7018,-3.7043,-3.708,-3.7134,-3.7167,-3.7232,-3.7284,-3.7333,-3.7357,-3.7356,-3.7357,-3.7369,-3.7367,-3.7359,-3.7364,-3.7246,-3.7354,-3.7354,-3.7353,-3.7353,-3.7353,-3.6825,-3.6863,-3.6907,-3.6959,-3.6992,-3.7029,-3.7068,-3.7094,-3.714,-3.7195,-3.7203,-3.7261,-3.7301,-3.7368,-3.7394,-3.7438,-3.7428,-3.7445,-3.7449,-3.7453,-3.7456,-3.7351,-3.7447,-3.7447,-3.7447,-3.7447,-3.7447,0,-3.6912,-3.6941,-3.6989,-3.7045,-3.7086,-3.7084,-3.7128,-3.7162,-3.7214,-3.7252,-3.7294,-3.7356,-3.7407,-3.7438,-3.7489,-3.7518,-3.7519,-3.7531,-3.7529,-3.7534,-3.7462,-3.7447,-3.7529,-3.7529,-3.7529,-3.7529,-3.7529,-3.7529,-3.6963,-3.7028,-3.7044,-3.7126,-3.7154,-3.7212,-3.7237,-3.7272,-3.7303,-3.7372,-3.7415,-3.7436,-3.7471,-3.7524,-3.757,-3.7578,-3.7596,-3.7609,-3.7616,-3.7548,-3.7539,-3.7531,-3.7518,-3.7613,-3.7613,-3.7685,-3.7685,-3.7686]}]]